Wind_Speed
15 16 15 12 6 9 12 19 22 21 16 14 10 8 8 10 12 14 17 21 24 24 24 21 22 22 20 21 20 21 21 20 21
10 11 12 12 11 8 3 13 21 25 25 20 17 14 13 13 16 17 17 18 23 26 27 26 27 25 23 22 22 22 22 23 24
8 9 9 10 10 8 6 2 13 22 26 26 23 21 18 17 18 20 20 21 23 25 27 29 30 31 28 26 25 24 25 26 25
10 11 12 12 9 7 7 6 5 11 18 26 24 23 22 20 19 20 22 24 24 26 29 30 31 31 29 27 27 26 27 27 26
13 16 18 19 18 16 11 7 7 9 14 23 29 28 26 21 19 20 23 25 26 28 29 29 28 28 27 25 26 28 30 30 29
15 18 20 20 21 21 20 18 14 9 11 15 24 24 27 27 24 24 26 26 26 27 29 28 28 26 25 24 24 25 26 29 30
18 19 19 20 20 21 21 19 17 14 13 17 19 23 30 33 32 32 31 32 31 29 27 26 26 25 23 24 24 24 26 27 27
20 22 22 23 22 22 22 22 22 20 19 20 24 25 25 33 39 40 40 37 36 34 31 28 26 26 24 23 23 22 22 24 26
23 25 24 26 24 23 25 25 25 25 25 24 27 30 30 35 36 42 47 45 43 37 33 32 31 31 30 28 28 24 23 23 25
25 25 28 29 30 33 31 30 31 30 29 28 28 30 31 32 37 39 42 46 48 43 39 39 37 35 35 35 33 30 28 25 27
25 29 32 34 35 35 34 35 35 36 33 32 32 32 33 32 30 30 31 34 41 46 48 48 43 40 37 38 38 31 28 28 29
27 32 36 38 33 34 38 33 30 35 36 37 36 35 34 33 34 34 34 35 33 34 41 45 50 54 50 43 43 39 34 32 32
31 36 30 26 30 30 28 25 27 30 32 33 38 39 38 36 36 35 33 36 35 31 34 37 42 50 54 53 52 46 44 41 39
28 26 25 24 25 26 26 25 23 23 27 29 34 41 41 40 38 37 35 35 37 34 34 33 36 45 48 47 50 54 53 48 47
24 25 27 28 29 27 26 28 28 22 20 28 33 34 38 42 40 39 39 36 33 35 35 38 36 34 38 38 38 40 50 55 51
26 27 30 31 32 32 30 30 31 29 25 25 26 32 34 35 38 39 37 36 32 29 27 29 30 30 26 25 31 37 38 37 47
24 27 30 31 33 34 31 28 27 27 28 27 24 22 26 30 33 35 38 35 29 29 29 28 25 27 23 29 29 29 30 36 39
25 27 30 31 32 34 32 26 18 20 22 24 23 20 19 23 27 27 31 34 31 27 29 29 25 22 22 24 24 22 24 32 39
25 25 28 29 29 30 25 18 14 17 18 19 16 14 15 17 18 19 20 25 27 27 28 30 27 18 22 25 27 20 18 21 28
24 24 25 27 26 28 18 14 19 21 22 17 13 12 13 13 14 17 17 19 21 23 21 27 25 22 18 21 27 26 18 14 18
Wind_Direction
53 52 52 66 192 216 219 216 214 219 222 231 240 250 259 254 242 240 249 252 253 248 252 251 259 256 256 256 253 253 253 250 251
33 32 36 36 44 48 199 224 219 219 220 222 222 235 245 245 240 242 244 244 247 251 253 256 252 255 256 259 258 258 258 254 258
12 10 9 17 19 13 11 287 233 231 228 224 221 223 234 244 242 239 239 241 248 250 251 249 254 259 259 259 257 256 256 258 256
337 337 336 338 344 352 353 328 274 245 231 228 227 231 240 248 260 258 255 251 251 252 254 255 256 256 262 264 264 262 257 256 258
320 321 322 322 321 322 319 315 299 275 235 219 220 224 226 233 245 255 262 269 264 262 260 264 261 262 263 262 260 262 263 263 259
318 322 320 318 315 310 306 300 291 277 264 241 226 233 233 223 227 240 248 251 255 260 267 264 264 261 262 261 262 262 261 264 263
312 312 313 312 310 307 304 300 292 285 262 250 250 245 229 226 231 230 242 245 249 249 253 261 264 261 260 263 262 262 265 265 269
305 306 307 306 302 298 293 289 282 270 259 253 253 254 239 237 232 249 244 249 242 243 245 248 253 257 256 256 259 263 270 272 271
300 300 298 300 298 300 295 287 279 274 266 258 254 254 250 247 249 251 251 251 241 240 242 243 242 249 255 257 260 262 264 271 271
301 300 300 302 299 298 293 285 279 269 265 263 258 263 263 258 254 259 258 255 248 247 246 248 248 245 248 254 259 262 260 261 271
303 304 303 303 303 301 298 291 273 267 261 257 255 258 263 266 266 269 271 272 264 255 259 255 255 252 251 250 255 262 265 262 261
309 308 307 306 305 306 303 298 282 266 257 254 255 254 256 263 267 268 273 277 278 276 270 268 256 254 258 255 253 258 258 264 269
315 315 316 313 314 318 311 302 291 280 265 253 250 250 253 255 261 268 269 272 275 279 280 277 271 267 261 261 261 258 253 255 265
324 331 331 327 325 326 324 314 301 288 273 263 253 250 250 254 256 262 268 269 270 270 273 275 280 279 275 276 275 263 257 252 258
321 327 329 325 323 320 315 311 310 308 289 271 263 257 253 251 253 256 260 266 268 267 269 272 276 280 282 276 273 272 260 255 258
322 329 329 325 325 321 319 308 301 299 298 293 285 268 258 251 249 252 257 262 269 268 265 263 269 279 291 291 272 267 257 253 255
324 329 326 325 325 323 322 315 304 290 295 295 292 288 262 254 249 248 252 257 264 270 267 267 274 280 287 304 290 273 264 251 247
328 330 328 330 331 329 323 324 309 300 303 299 293 288 273 255 251 256 252 253 257 263 271 272 277 282 285 290 291 281 277 260 246
327 332 334 335 339 345 346 349 350 337 324 315 301 288 277 258 256 257 258 254 253 258 265 266 270 279 296 270 303 295 294 274 259
328 335 340 341 345 351 356 2 344 342 336 314 302 285 292 266 257 256 253 249 251 256 266 274 270 274 283 286 291 302 293 291 261
Height
3196 3194 3193 3192 3191 3192 3192 3192 3193 3195 3196 3197 3197 3197 3196 3196 3196 3197 3198 3200 3200 3201 3201 3202 3203 3203 3205 3206 3208 3208 3209 3210 3211
3195 3194 3194 3193 3191 3190 3189 3189 3189 3190 3190 3191 3192 3193 3192 3193 3193 3192 3193 3194 3194 3195 3196 3198 3198 3198 3200 3201 3203 3204 3205 3206 3206
3194 3193 3193 3192 3191 3189 3188 3187 3186 3186 3186 3187 3187 3187 3188 3189 3189 3189 3188 3188 3188 3189 3189 3190 3192 3193 3195 3196 3197 3198 3199 3201 3202
3191 3190 3189 3188 3188 3187 3186 3184 3182 3181 3181 3182 3184 3184 3185 3185 3186 3186 3186 3184 3183 3183 3183 3184 3186 3186 3188 3190 3191 3193 3193 3193 3195
3188 3187 3186 3184 3184 3183 3182 3182 3181 3178 3175 3174 3176 3177 3178 3181 3181 3181 3181 3181 3181 3180 3179 3180 3180 3181 3182 3183 3184 3186 3187 3188 3189
3185 3184 3182 3179 3178 3177 3176 3175 3176 3175 3173 3170 3170 3172 3172 3171 3173 3174 3173 3173 3174 3173 3175 3175 3176 3176 3177 3177 3178 3179 3180 3181 3181
3183 3181 3179 3177 3175 3172 3171 3169 3169 3168 3168 3167 3166 3165 3164 3163 3164 3164 3165 3165 3167 3165 3166 3168 3170 3170 3171 3171 3171 3172 3174 3174 3175
3179 3176 3174 3172 3170 3168 3166 3165 3163 3162 3161 3161 3159 3158 3158 3158 3157 3156 3156 3157 3158 3158 3158 3158 3161 3164 3164 3165 3165 3166 3167 3168 3168
3174 3171 3169 3166 3164 3162 3160 3157 3156 3154 3153 3153 3152 3150 3150 3148 3148 3148 3147 3147 3149 3149 3151 3152 3151 3155 3156 3157 3159 3160 3161 3162 3161
3167 3164 3161 3158 3155 3152 3151 3150 3146 3145 3145 3144 3144 3142 3141 3141 3140 3139 3138 3137 3137 3140 3142 3143 3144 3145 3147 3149 3151 3153 3153 3154 3155
3160 3156 3152 3149 3146 3142 3139 3136 3135 3133 3134 3134 3134 3133 3133 3133 3132 3131 3130 3129 3130 3132 3133 3134 3135 3137 3139 3140 3142 3145 3147 3147 3147
3154 3149 3144 3139 3135 3133 3126 3122 3119 3119 3122 3123 3123 3124 3124 3124 3123 3124 3123 3123 3122 3123 3124 3124 3125 3125 3127 3129 3132 3137 3138 3140 3139
3147 3141 3135 3130 3126 3121 3116 3113 3109 3106 3108 3112 3113 3112 3113 3114 3114 3114 3114 3114 3114 3115 3113 3113 3114 3114 3118 3119 3120 3125 3129 3130 3130
3140 3134 3129 3126 3121 3115 3109 3105 3102 3100 3099 3099 3101 3102 3103 3104 3106 3105 3105 3105 3105 3107 3106 3106 3105 3103 3104 3107 3108 3110 3115 3119 3119
3136 3131 3126 3121 3115 3110 3105 3100 3095 3093 3090 3088 3087 3089 3091 3093 3095 3096 3096 3095 3096 3097 3098 3097 3096 3095 3094 3095 3097 3098 3100 3102 3106
3129 3125 3120 3115 3108 3102 3096 3092 3087 3085 3082 3080 3078 3077 3078 3081 3083 3085 3087 3087 3088 3090 3090 3090 3089 3087 3085 3084 3083 3084 3086 3088 3092
3126 3120 3116 3109 3102 3096 3089 3084 3079 3076 3074 3072 3069 3067 3067 3069 3072 3076 3077 3079 3082 3081 3081 3082 3080 3079 3077 3074 3072 3070 3070 3074 3077
3121 3116 3111 3104 3097 3090 3082 3075 3073 3071 3068 3064 3062 3060 3060 3060 3063 3066 3068 3071 3073 3073 3073 3074 3072 3071 3070 3069 3066 3062 3061 3062 3064
3117 3112 3107 3100 3093 3086 3078 3073 3071 3068 3063 3059 3056 3055 3055 3055 3057 3059 3060 3063 3064 3065 3065 3065 3066 3063 3063 3061 3061 3058 3055 3053 3053
3113 3108 3103 3097 3090 3084 3077 3074 3070 3066 3061 3056 3053 3052 3051 3051 3053 3053 3054 3056 3057 3057 3059 3056 3058 3058 3057 3053 3058 3053 3051 3048 3047